Weather History for Al Hoceima, Morocco

Change the Weather History Date:

Thursday, February 27, 2014

  Actual Average Record
Temperature  
Mean Temperature 56 °F -  
Max Temperature 66 °F 63 °F 73 °F (2011)
Min Temperature 47 °F 49 °F 39 °F (2013)
Degree Days  
Heating Degree Days 8    
Growing Degree Days 6 (Base 50)    
Moisture  
Dew Point 42 °F    
Average Humidity 50    
Maximum Humidity 66    
Minimum Humidity 33    
Precipitation  
Precipitation 0.00 in - - ()
Sea Level Pressure  
Sea Level Pressure 30.46 in    
Wind  
Wind Speed 5 mph ()    
Max Wind Speed 14 mph    
Max Gust Speed -    
Visibility 7.0 miles    
Events      
Averages and records for this station are not official NWS values.
T = Trace of Precipitation, MM = Missing Value Source: Averaged Metar Reports

Daily Weather History Graph

Daily Weather History Graph

Search for Another Location

Airport:

Trip Planner

Search our weather history database for the weather conditions in past years. The results will help you decide how hot, cold, wet, or windy it might be!

Date:

Astronomy

Feb. 27, 2014 Rise Set
Actual Time 6:47 AM WET 6:08 PM WET
Civil Twilight 6:22 AM WET 6:34 PM WET
Nautical Twilight 5:52 AM WET 7:03 PM WET
Astronomical Twilight 5:23 AM WET 7:33 PM WET
Moon 5:06 AM WET (2/27) 4:20 PM WET (2/27)
Length of Visible Light 12h 12m
Length of Day
11h 21m
Waning Crescent, 5% of the Moon is Illuminated
Feb 27
Waning Crescent
Mar 1
New
Mar 8
First Quarter
Mar 16
Full
Mar 24
Last Quarter

Hourly Weather History & Observations

Time (WET) Temp. Dew Point Humidity Pressure Visibility Wind Dir Wind Speed Gust Speed Precip Events Conditions
12:00 AM 56 °F 43 °F 52% 30.49 in 9 mi West 4.6 mph - -   Scattered Clouds
12:00 AM 55.4 °F 42.8 °F 63% 30.48 in 6.2 mi West 4.6 mph - N/A   Partly Cloudy
3:00 AM 49 °F 40 °F 61% 30.47 in 5 mi SSE 2.3 mph - -   Scattered Clouds
6:00 AM 48 °F 38 °F 59% 30.48 in 9 mi SSE 4.6 mph - -  
6:00 AM 48.2 °F 37.4 °F 66% 30.45 in - SSE 4.6 mph - N/A   Clear
7:00 AM 50.0 °F 39.2 °F 66% 30.48 in - SSW 4.6 mph - N/A   Clear
8:00 AM 53.6 °F 41.0 °F 62% 30.48 in - SSE 4.6 mph - N/A   Clear
9:00 AM 58 °F 43 °F 46% 30.51 in 9 mi ESE 4.6 mph - -   Scattered Clouds
9:00 AM 57.2 °F 42.8 °F 59% 30.51 in - ESE 4.6 mph - N/A   Clear
10:00 AM 64.4 °F 41.0 °F 42% 30.51 in - West 6.9 mph - N/A   Clear
11:00 AM 64.4 °F 42.8 °F 45% 30.48 in - NW 9.2 mph - N/A   Clear
12:00 PM 65 °F 44 °F 36% 30.48 in 9 mi NNW 11.5 mph - -   Scattered Clouds
12:00 PM 64.4 °F 44.6 °F 49% 30.48 in - NNW 11.5 mph - N/A   Clear
1:00 PM 64.4 °F 42.8 °F 45% 30.45 in - NNW 13.8 mph - N/A   Clear
2:00 PM 64.4 °F 44.6 °F 49% 30.42 in - NNW 11.5 mph - N/A   Clear
3:00 PM 65 °F 43 °F 33% 30.42 in 9 mi NW 13.8 mph - -   Clear
3:00 PM 64.4 °F 42.8 °F 45% 30.42 in - NW 13.8 mph - N/A   Clear
4:00 PM 64.4 °F 41.0 °F 42% 30.42 in 6.2 mi NNW 9.2 mph - N/A   Mostly Cloudy
5:00 PM 62.6 °F 41.0 °F 45% 30.42 in 6.2 mi NW 4.6 mph - N/A   Mostly Cloudy
6:00 PM 62 °F 44 °F 39% 30.45 in 6 mi West 4.6 mph - -   Partly Cloudy
6:00 PM 62.6 °F 42.8 °F 48% 30.45 in 6.2 mi West 4.6 mph - N/A   Mostly Cloudy
7:00 PM 62.6 °F 44.6 °F 52% 30.45 in 6.2 mi West 4.6 mph - N/A   Mostly Cloudy
8:00 PM 60.8 °F 44.6 °F 55% 30.45 in 6.2 mi WSW 4.6 mph - N/A   Mostly Cloudy
9:00 PM 60 °F 44 °F 45% 30.45 in 6 mi SSE 2.3 mph - -   Mostly Cloudy
9:00 PM 60.8 °F 44.6 °F 55% 30.45 in 6.2 mi SSE 2.3 mph - N/A   Mostly Cloudy